Location: Les Chemineaux
(47.3024°N, 1.5104°E)
Time: 21:05:58
(UTC+00:00)

CZ-4B R/B - Pass Details

Date: 19 May 2025
Orbit: 449 x 582 km, 97.8° (Epoch: 21 June)

Event Time Altitude Azimuth Distance (km) Brightness Sun altitude
Exits shadow 20:16:50 - 174° (S) 2,676 5.9 -7.4°
Reaches altitude 10° 20:18:47 10° 177° (S) 1,871 5.1 -7.7°
Maximum altitude 20:22:48 61° 258° (WSW) 638 3.3 -8.2°
Drops below altitude 10° 20:26:44 10° 340° (NNW) 1,824 6.6 -8.7°
Sets 20:28:51 0° 344° (NNW) 2,699 7.5 -8.9°
